| time (UTC) | temp F | wind direction | speed MPH | gust MPH | rain 1hr in | rain 24hr in | rain mn in | humidity % | barometer mb |
| 20260831231012 | 65 | 324 | 1.0 | 2.0 | 0.00 | 0.15 | 0.00 | 80 | 1012.6 |
| 20260831230513 | 65 | 83 | 1.0 | 2.0 | 0.00 | 0.15 | 0.00 | 79 | 1012.6 |
| 20260831230012 | 65 | 65 | 1.0 | 3.0 | 0.00 | 0.15 | 0.00 | 79 | 1012.6 |
| 20260831224512 | 65 | 337 | 1.0 | 3.0 | 0.00 | 0.15 | 0.00 | 78 | 1012.6 |
| 20260831224012 | 65 | 57 | 1.0 | 3.0 | 0.00 | 0.15 | 0.00 | 77 | 1012.6 |
| 20260831223512 | 65 | 293 | 2.0 | 5.0 | 0.00 | 0.15 | 0.00 | 77 | 1012.6 |
| 20260831223012 | 65 | 296 | 2.0 | 6.0 | 0.00 | 0.15 | 0.00 | 76 | 1012.6 |
| 20260831221513 | 66 | 28 | 1.0 | 5.0 | 0.00 | 0.15 | 0.00 | 76 | 1012.5 |
| 20260831221012 | 66 | 321 | 1.0 | 5.0 | 0.00 | 0.15 | 0.00 | 75 | 1012.4 |
| 20260831220512 | 66 | 345 | 1.0 | 5.0 | 0.00 | 0.15 | 0.00 | 75 | 1012.4 |
| 20260831220012 | 66 | 311 | 1.0 | 7.0 | 0.00 | 0.15 | 0.00 | 74 | 1012.4 |
| 20260831214512 | 66 | 304 | 2.0 | 5.0 | 0.00 | 0.15 | 0.00 | 72 | 1012.4 |
| 20260831213012 | 66 | 302 | 2.0 | 7.0 | 0.00 | 0.15 | 0.00 | 71 | 1012.5 |
| 20260831211512 | 67 | 307 | 2.0 | 6.0 | 0.00 | 0.15 | 0.00 | 67 | 1012.7 |
| 20260831211012 | 67 | 355 | 1.0 | 6.0 | 0.00 | 0.15 | 0.00 | 68 | 1012.7 |
| 20260831210511 | 67 | 312 | 3.0 | 6.0 | 0.00 | 0.15 | 0.00 | 69 | 1012.7 |
| 20260831210012 | 67 | 298 | 1.0 | 7.0 | 0.00 | 0.15 | 0.00 | 70 | 1012.8 |
| 20260831204512 | 66 | 54 | 2.0 | 7.0 | 0.00 | 0.15 | 0.00 | 69 | 1012.9 |
| 20260831204012 | 67 | 297 | 3.0 | 6.0 | 0.00 | 0.15 | 0.00 | 66 | 1013.0 |
| 20260831203511 | 67 | 315 | 2.0 | 7.0 | 0.00 | 0.15 | 0.00 | 66 | 1013.0 |
| 20260831203012 | 67 | 293 | 3.0 | 7.0 | 0.00 | 0.15 | 0.00 | 66 | 1012.9 |
| 20260831201511 | 67 | 308 | 2.0 | 7.0 | 0.00 | 0.15 | 0.00 | 66 | 1012.8 |
| 20260831200511 | 68 | 83 | 3.0 | 7.0 | 0.00 | 0.15 | 0.00 | 59 | 1012.7 |
| 20260831194012 | 69 | 27 | 1.0 | 6.0 | 0.00 | 0.15 | 0.00 | 59 | 1013.0 |
| 20260831193511 | 69 | 295 | 2.0 | 5.0 | 0.00 | 0.15 | 0.00 | 57 | 1013.1 |
| 20260831193011 | 69 | 25 | 2.0 | 10.0 | 0.00 | 0.15 | 0.00 | 58 | 1013.2 |
| 20260831191511 | 69 | 310 | 3.0 | 9.0 | 0.00 | 0.15 | 0.00 | 60 | 1013.3 |
| 20260831190512 | 69 | 306 | 4.0 | 8.0 | 0.00 | 0.15 | 0.00 | 60 | 1013.4 |
| 20260831190011 | 69 | 26 | 3.0 | 9.0 | 0.00 | 0.15 | 0.00 | 58 | 1013.5 |
| 20260831183511 | 70 | 310 | 3.0 | 9.0 | 0.00 | 0.15 | 0.00 | 56 | 1013.5 |
| 20260831183011 | 70 | 302 | 2.0 | 6.0 | 0.00 | 0.15 | 0.00 | 55 | 1013.4 |
| 20260831181511 | 70 | 349 | 2.0 | 7.0 | 0.00 | 0.15 | 0.00 | 57 | 1013.5 |
| 20260831180011 | 71 | 303 | 2.0 | 7.0 | 0.00 | 0.15 | 0.00 | 52 | 1013.5 |
| 20260831174511 | 71 | 28 | 2.0 | 6.0 | 0.00 | 0.15 | 0.00 | 52 | 1013.5 |
| 20260831174011 | 71 | 79 | 3.0 | 9.0 | 0.00 | 0.15 | 0.00 | 53 | 1013.6 |
| 20260831173511 | 72 | 80 | 3.0 | 6.0 | 0.00 | 0.15 | 0.00 | 50 | 1013.6 |
| 20260831173010 | 73 | 290 | 2.0 | 5.0 | 0.00 | 0.15 | 0.00 | 50 | 1013.7 |
| 20260831171511 | 72 | 307 | 2.0 | 5.0 | 0.00 | 0.15 | 0.00 | 52 | 1013.7 |
| 20260831171011 | 72 | 310 | 3.0 | 5.0 | 0.00 | 0.15 | 0.00 | 50 | 1013.8 |
| 20260831170511 | 72 | 69 | 2.0 | 5.0 | 0.00 | 0.15 | 0.00 | 50 | 1013.8 |
| 20260831170011 | 72 | 303 | 2.0 | 7.0 | 0.00 | 0.15 | 0.00 | 50 | 1013.8 |
| 20260831164511 | 72 | 309 | 3.0 | 6.0 | 0.00 | 0.15 | 0.00 | 49 | 1013.9 |
| 20260831163510 | 72 | 10 | 2.0 | 5.0 | 0.00 | 0.15 | 0.00 | 51 | 1014.0 |
| 20260831163011 | 72 | 340 | 2.0 | 5.0 | 0.00 | 0.15 | 0.00 | 51 | 1014.0 |
| 20260831161011 | 73 | 60 | 1.0 | 3.0 | 0.00 | 0.15 | 0.00 | 51 | 1014.2 |
| 20260831160510 | 73 | 43 | 2.0 | 6.0 | 0.00 | 0.15 | 0.00 | 51 | 1014.2 |
| 20260831154511 | 74 | 340 | 1.0 | 2.0 | 0.00 | 0.15 | 0.00 | 44 | 1014.3 |
| 20260831154011 | 74 | 291 | 1.0 | 3.0 | 0.00 | 0.15 | 0.00 | 42 | 1014.4 |
| 20260831153510 | 73 | 303 | 1.0 | 3.0 | 0.00 | 0.15 | 0.00 | 45 | 1014.3 |
| 20260831153011 | 72 | 21 | 1.0 | 3.0 | 0.00 | 0.15 | 0.00 | 48 | 1014.3 |
| 20260831151010 | 72 | 306 | 1.0 | 3.0 | 0.00 | 0.15 | 0.00 | 50 | 1014.4 |
| 20260831150010 | 71 | 37 | 1.0 | 2.0 | 0.00 | 0.15 | 0.00 | 51 | 1014.5 |
| 20260831144510 | 70 | 61 | 1.0 | 2.0 | 0.00 | 0.15 | 0.00 | 56 | 1014.6 |
| 20260831144010 | 69 | 100 | 2.0 | 2.0 | 0.00 | 0.15 | 0.00 | 56 | 1014.6 |
| 20260831143510 | 69 | 283 | 1.0 | 2.0 | 0.00 | 0.15 | 0.00 | 56 | 1014.8 |
| 20260831143010 | 68 | 47 | 1.0 | 3.0 | 0.00 | 0.15 | 0.00 | 59 | 1014.8 |
| 20260831141510 | 67 | 104 | 2.0 | 3.0 | 0.00 | 0.15 | 0.00 | 57 | 1014.9 |
| 20260831141010 | 67 | 78 | 1.0 | 2.0 | 0.00 | 0.15 | 0.00 | 58 | 1014.9 |
| 20260831140510 | 67 | 69 | 1.0 | 2.0 | 0.00 | 0.15 | 0.00 | 60 | 1014.9 |
| 20260831140010 | 67 | 358 | 1.0 | 2.0 | 0.00 | 0.15 | 0.00 | 63 | 1014.9 |
| 20260831134510 | 66 | 107 | 1.0 | 1.0 | 0.00 | 0.15 | 0.00 | 67 | 1014.8 |
| 20260831134010 | 65 | 351 | 1.0 | 2.0 | 0.00 | 0.15 | 0.00 | 69 | 1014.8 |
| 20260831133510 | 65 | 81 | 2.0 | 2.0 | 0.00 | 0.15 | 0.00 | 69 | 1014.8 |
| 20260831133010 | 65 | 85 | 1.0 | 2.0 | 0.00 | 0.15 | 0.00 | 70 | 1014.8 |
| 20260831131509 | 63 | 75 | 1.0 | 2.0 | 0.00 | 0.15 | 0.00 | 76 | 1014.6 |
| 20260831131010 | 63 | 49 | 1.0 | 2.0 | 0.00 | 0.15 | 0.00 | 77 | 1014.6 |
| 20260831130510 | 63 | 75 | 1.0 | 1.0 | 0.00 | 0.15 | 0.00 | 79 | 1014.6 |
| 20260831124010 | 60 | 70 | 1.0 | 1.0 | 0.00 | 0.15 | 0.00 | 84 | 1014.7 |
| 20260831123510 | 59 | 42 | 1.0 | 1.0 | 0.00 | 0.15 | 0.00 | 87 | 1014.6 |
| 20260831123010 | 58 | 62 | 1.0 | 1.0 | 0.00 | 0.15 | 0.00 | 90 | 1014.6 |
| 20260831121509 | 56 | 82 | 0.0 | 1.0 | 0.00 | 0.15 | 0.00 | 99 | 1014.4 |
| 20260831121009 | 56 | 81 | 1.0 | 1.0 | 0.00 | 0.15 | 0.00 | 99 | 1014.4 |
| 20260831120510 | 55 | 28 | 1.0 | 1.0 | 0.00 | 0.15 | 0.00 | 99 | 1014.4 |
| 20260831120010 | 55 | 41 | 0.0 | 2.0 | 0.00 | 0.15 | 0.00 | 99 | 1014.4 |
| 20260831114510 | 54 | 296 | 1.0 | 1.0 | 0.00 | 0.15 | 0.00 | 100 | 1014.3 |
| 20260831114010 | 54 | 59 | 1.0 | 1.0 | 0.00 | 0.15 | 0.00 | 100 | 1014.3 |
| 20260831113510 | 53 | 15 | 1.0 | 1.0 | 0.00 | 0.15 | 0.00 | 100 | 1014.5 |
| 20260831113009 | 53 | 102 | 1.0 | 2.0 | 0.00 | 0.15 | 0.00 | 100 | 1014.5 |
| 20260831111009 | 52 | 127 | 1.0 | 1.0 | 0.00 | 0.15 | 0.00 | 100 | 1014.3 |
| 20260831110509 | 52 | 51 | 1.0 | 1.0 | 0.00 | 0.15 | 0.00 | 100 | 1014.3 |
| 20260831104009 | 52 | 292 | 1.0 | 2.0 | 0.00 | 0.15 | 0.00 | 99 | 1014.1 |
| 20260831103509 | 52 | 142 | 1.0 | 1.0 | 0.00 | 0.15 | 0.00 | 99 | 1014.1 |
| 20260831103009 | 52 | 243 | 1.0 | 1.0 | 0.00 | 0.15 | 0.00 | 99 | 1014.1 |
| 20260831101509 | 53 | 92 | 1.0 | 1.0 | 0.00 | 0.15 | 0.00 | 99 | 1013.8 |
| 20260831101009 | 53 | 10 | 1.0 | 1.0 | 0.00 | 0.15 | 0.00 | 98 | 1013.8 |
| 20260831100509 | 53 | 345 | 1.0 | 1.0 | 0.00 | 0.15 | 0.00 | 98 | 1013.7 |
| 20260831100009 | 53 | 338 | 0.0 | 1.0 | 0.00 | 0.15 | 0.00 | 98 | 1013.7 |
| 20260831094509 | 54 | 124 | 0.0 | 1.0 | 0.00 | 0.15 | 0.00 | 97 | 1013.5 |
| 20260831094009 | 54 | 130 | 1.0 | 1.0 | 0.00 | 0.15 | 0.00 | 97 | 1013.4 |
| 20260831093510 | 54 | 150 | 1.0 | 1.0 | 0.00 | 0.15 | 0.00 | 97 | 1013.3 |
| 20260831091509 | 55 | 206 | 0.0 | 1.0 | 0.00 | 0.15 | 0.00 | 97 | 1013.2 |
| 20260831091009 | 55 | 31 | 1.0 | 1.0 | 0.00 | 0.15 | 0.00 | 96 | 1013.1 |
| 20260831090509 | 55 | 254 | 1.0 | 2.0 | 0.00 | 0.15 | 0.00 | 97 | 1013.0 |
| 20260831090008 | 55 | 21 | 0.0 | 1.0 | 0.00 | 0.15 | 0.00 | 96 | 1013.0 |
| 20260831084009 | 55 | 100 | 1.0 | 1.0 | 0.00 | 0.15 | 0.00 | 96 | 1012.8 |
| 20260831083509 | 55 | 78 | 1.0 | 1.0 | 0.00 | 0.15 | 0.00 | 96 | 1012.7 |
| 20260831083009 | 55 | 102 | 0.0 | 2.0 | 0.00 | 0.15 | 0.00 | 96 | 1012.6 |
| 20260831081508 | 56 | 154 | 1.0 | 1.0 | 0.00 | 0.15 | 0.00 | 97 | 1012.6 |
| 20260831081008 | 56 | 206 | 0.0 | 1.0 | 0.00 | 0.15 | 0.00 | 97 | 1012.6 |
| 20260831080508 | 56 | 305 | 1.0 | 1.0 | 0.00 | 0.15 | 0.00 | 98 | 1012.6 |
| 20260831080009 | 55 | 84 | 1.0 | 1.0 | 0.00 | 0.15 | 0.00 | 98 | 1012.5 |
| 20260831074509 | 55 | 223 | 1.0 | 1.0 | 0.00 | 0.15 | 0.00 | 99 | 1012.4 |
| 20260831074009 | 55 | 113 | 0.0 | 1.0 | 0.00 | 0.15 | 0.00 | 99 | 1012.4 |
| 20260831073508 | 55 | 302 | 1.0 | 2.0 | 0.00 | 0.15 | 0.00 | 99 | 1012.5 |
| 20260831073008 | 55 | 307 | 1.0 | 1.0 | 0.00 | 0.15 | 0.00 | 99 | 1012.4 |
| 20260831071508 | 56 | 295 | 1.0 | 1.0 | 0.00 | 0.15 | 0.00 | 99 | 1012.2 |
| 20260831071008 | 56 | 149 | 1.0 | 1.0 | 0.00 | 0.15 | 0.00 | 99 | 1012.2 |
| 20260831070508 | 56 | 304 | 1.0 | 1.0 | 0.00 | 0.15 | 0.00 | 99 | 1012.2 |
| 20260831070009 | 56 | 92 | 1.0 | 1.0 | 0.00 | 0.15 | 0.00 | 99 | 1012.2 |
| 20260831064508 | 56 | 326 | 1.0 | 2.0 | 0.00 | 0.15 | 0.00 | 99 | 1012.0 |
| 20260831063508 | 56 | 306 | 1.0 | 1.0 | 0.00 | 0.15 | 0.00 | 99 | 1011.9 |
| 20260831061508 | 57 | 105 | 1.0 | 1.0 | 0.00 | 0.15 | 0.00 | 99 | 1011.8 |
| 20260831060508 | 57 | 327 | 1.0 | 2.0 | 0.00 | 0.15 | 0.00 | 99 | 1011.6 |
| 20260831060008 | 57 | 330 | 1.0 | 2.0 | 0.00 | 0.15 | 0.00 | 99 | 1011.6 |
| 20260831054507 | 57 | 314 | 1.0 | 2.0 | 0.00 | 0.15 | 0.00 | 98 | 1011.7 |
| 20260831054008 | 58 | 282 | 1.0 | 1.0 | 0.00 | 0.15 | 0.00 | 98 | 1011.6 |
| 20260831053008 | 58 | 147 | 1.0 | 2.0 | 0.00 | 0.15 | 0.00 | 98 | 1011.5 |
| 20260831051507 | 59 | 354 | 0.0 | 1.0 | 0.00 | 0.15 | 0.00 | 97 | 1011.4 |
| 20260831051007 | 59 | 57 | 1.0 | 1.0 | 0.00 | 0.15 | 0.00 | 97 | 1011.4 |
| 20260831050009 | 59 | 174 | 1.0 | 1.0 | 0.00 | 0.15 | 0.00 | 96 | 1011.3 |
| 20260831044507 | 60 | 118 | 1.0 | 1.0 | 0.07 | 0.15 | 0.00 | 96 | 1011.3 |
| 20260831044008 | 60 | 61 | 0.0 | 1.0 | 0.07 | 0.15 | 0.00 | 96 | 1011.4 |
| 20260831043507 | 60 | 71 | 0.0 | 1.0 | 0.07 | 0.15 | 0.00 | 96 | 1011.4 |
| 20260831043007 | 60 | 169 | 1.0 | 1.0 | 0.07 | 0.15 | 0.00 | 96 | 1011.4 |
| 20260831041507 | 61 | 274 | 1.0 | 1.0 | 0.07 | 0.15 | 0.00 | 95 | 1011.3 |
| 20260831041008 | 61 | 354 | 1.0 | 1.0 | 0.07 | 0.15 | 0.00 | 95 | 1011.2 |
| 20260831040507 | 61 | 323 | 1.0 | 1.0 | 0.07 | 0.15 | 0.00 | 95 | 1011.2 |
| 20260831034007 | 63 | 356 | 1.0 | 1.0 | 0.00 | 0.09 | 0.07 | 90 | 1011.2 |
| 20260831033007 | 64 | 211 | 1.0 | 1.0 | 0.01 | 0.09 | 0.07 | 89 | 1011.3 |
| 20260831031007 | 65 | 8 | 1.0 | 2.0 | 0.02 | 0.09 | 0.07 | 91 | 1011.2 |
| 20260831030507 | 65 | 35 | 1.0 | 1.0 | 0.02 | 0.09 | 0.07 | 95 | 1011.4 |
| 20260831024008 | 65 | 334 | 1.0 | 1.0 | 0.03 | 0.08 | 0.06 | 97 | 1010.8 |
| 20260831023507 | 65 | 293 | 1.0 | 1.0 | 0.02 | 0.07 | 0.06 | 97 | 1010.7 |
| 20260831023007 | 65 | 294 | 1.0 | 1.0 | 0.03 | 0.07 | 0.06 | 96 | 1010.5 |
| 20260831021507 | 65 | 319 | 1.0 | 1.0 | 0.03 | 0.07 | 0.06 | 96 | 1010.6 |
| 20260831021007 | 65 | 283 | 1.0 | 1.0 | 0.03 | 0.06 | 0.05 | 96 | 1010.6 |
| 20260831020007 | 65 | 282 | 1.0 | 1.0 | 0.02 | 0.05 | 0.04 | 96 | 1010.4 |
| 20260831014507 | 66 | 296 | 0.0 | 1.0 | 0.01 | 0.05 | 0.04 | 95 | 1010.2 |
| 20260831014007 | 66 | 300 | 1.0 | 2.0 | 0.01 | 0.05 | 0.04 | 94 | 1010.3 |
| 20260831013507 | 66 | 279 | 1.0 | 1.0 | 0.03 | 0.04 | 0.03 | 94 | 1010.2 |
| 20260831013006 | 66 | 296 | 1.0 | 1.0 | 0.03 | 0.04 | 0.03 | 94 | 1010.1 |
| 20260831011007 | 67 | 274 | 1.0 | 1.0 | 0.03 | 0.03 | 0.03 | 91 | 1009.8 |
| 20260831010507 | 67 | 298 | 1.0 | 1.0 | 0.03 | 0.03 | 0.03 | 90 | 1009.8 |
| 20260831004006 | 70 | 24 | 0.0 | 1.0 | 0.03 | 0.03 | 0.03 | 79 | 1009.7 |
| 20260831003507 | 70 | 305 | 1.0 | 1.0 | 0.00 | 0.00 | 0.00 | 78 | 1009.5 |
| 20260831001506 | 70 | 296 | 1.0 | 1.0 | 0.00 | 0.00 | 0.00 | 77 | 1009.2 |
| 20260831001007 | 70 | 291 | 1.0 | 1.0 | 0.00 | 0.00 | 0.00 | 77 | 1009.1 |
| 20260831000506 | 71 | 308 | 1.0 | 1.0 | 0.00 | 0.00 | 0.00 | 77 | 1009.0 |
| 20260831000006 | 71 | 306 | 1.0 | 1.0 | 0.00 | 0.00 | 0.00 | 76 | 1008.9 |
| 20260830234506 | 71 | 293 | 1.0 | 1.0 | 0.00 | 0.00 | 0.00 | 76 | 1008.8 |
| 20260830234006 | 71 | 304 | 1.0 | 1.0 | 0.00 | 0.00 | 0.00 | 76 | 1008.8 |
| 20260830233506 | 71 | 320 | 1.0 | 1.0 | 0.00 | 0.00 | 0.00 | 75 | 1008.8 |
| 20260830231506 | 72 | 336 | 1.0 | 1.0 | 0.00 | 0.00 | 0.00 | 74 | 1008.8 |